Regional Weather Roundup
Issued by NWS Austin/San Antonio, TX

Home | Current Version | Previous Version | Graphics & Text | Print | Product List | Glossary On
Versions: 1 2 3 4 5 6 7 8 9 10 11 12 13 14 15 16 17 18 19 20 21 22 23 24 25 26 27 28 29 30 31 32 33 34 35 36 37 38 39 40 41 42 43 44 45 46 47 48 49 50
489
ASUS44 KEWX 190210
RWREWX
SOUTH TEXAS REGIONAL WEATHER ROUNDUP
NATIONAL WEATHER SERVICE AUSTIN/SAN ANTONIO TX
900 PM CDT WED OCT 18 2017

NOTE: "FAIR" INDICATED FEW OR NO CLOUDS BELOW 12,000 FEET WITH NO
SIGNIFICANT WEATHER AND/OR OBSTRUCTIONS TO VISIBILITY.

* - THESE STATIONS ARE NOT NWS OR FAA STATIONS...AND ARE NOT SUBJECT
    TO NWS AND FAA QUALITY CONTROL.

TXZ171-172-183>190-190300-
TEXAS HILL COUNTRY AND EDWARDS PLATEAU

CITY           SKY/WX    TMP DP  RH WIND       PRES   REMARKS
JUNCTION       CLOUDY    68  44  42 S7        30.09S
*LLANO         PTCLDY    68  46  45 CALM      30.12R
BURNET         PTCLDY    68  48  48 SE3       30.13R
*HORSESHOE BAY PTCLDY    65  48  55 SE5       30.10S
*KERRVILLE     PTCLDY    62  50  66 SE5       30.11S
*FREDERICKSBRG PTCLDY    63  45  50 SE3       30.11S
*ROCKSPRINGS   NOT AVBL
*BOERNE STAGE  PTCLDY    57  46  67 CALM      30.13R
*CASTROVILLE   PTCLDY    66  46  46 CALM      30.10S
HONDO          PTCLDY    69  50  50 E6        30.09R
*UVALDE        PTCLDY    63  52  67 E7        30.10R
DEL RIO        PTCLDY    68  53  58 SE7       30.05R
LAUGHLIN AFB   CLEAR     64  53  68 SE6       30.06R
CARRIZO SPRGS  PTCLDY    61  54  77 CALM      30.06R
*EAGLE PASS    NOT AVBL
$$

TXZ173-191>194-202-209-217>225-228-190300-
CENTRAL AND SOUTH CENTRAL TEXAS

CITY           SKY/WX    TMP DP  RH WIND       PRES   REMARKS
GEORGETOWN     CLOUDY    64  49  57 CALM      30.13
AUSTIN/BERGSTM MOCLDY    58  54  86 CALM      30.10R
AUSTIN/MABRY   CLOUDY    68  51  54 CALM      30.11R
*AUSTIN/EXEC   CLOUDY    68  48  49 CALM      30.11R HAZE
*LAGO VISTA    PTCLDY    71  49  46 CALM      30.12S
SAN MARCOS       N/A    N/A N/A N/A MISG        N/A
NEW BRAUNFELS  PTCLDY    61  52  72 SE5       30.08R
RANDOLPH AFB   PTCLDY    65  52  62 CALM      30.09S
PT SAN ANTONIO PTCLDY    64  50  61 CALM      30.08R
SAN ANTONIO    MOCLDY    68  50  52 CALM      30.10R
STINSON FIELD  CLOUDY    67  53  61 SE3       30.08R
*LA GRANGE     CLEAR     64  53  68 CALM      30.09R
*GIDDINGS      CLEAR     63  48  59 CALM      30.11R
*GONZALES      CLEAR     68  55  61 CALM      30.09R
$$

TXZ163>164-176>182-195>201-210>213-226-227-235-190300-
SOUTHEAST TEXAS

CITY           SKY/WX    TMP DP  RH WIND       PRES   REMARKS
COLLEGE STN    CLEAR     68  52  56 SE3       30.11R
*BRYAN         CLEAR     62  50  65 E3        30.13R
*CALDWELL      CLEAR     63  51  64 E3        30.11S
*CROCKETT        N/A     57  52  82 CALM      30.16R
*BRENHAM       CLEAR     68  55  64 CALM      30.12R
HUNTSVILLE     CLOUDY    63  54  72 CALM      30.13R
CONROE         CLEAR     60  57  89 CALM      30.13R
HOUSTON BUSH   PTCLDY    70  63  78 SE10      30.13R
HOUSTON HOBBY  MOCLDY    73  65  75 SE7       30.12R
*HOUSTON SW AP CLEAR     64  60  88 CALM      30.13S
PEARLAND       PTCLDY    72  64  76 E3        30.14R
HOUSTON HOOKS  CLEAR     70  61  73 SE3       30.13R
ELLINGTON FLD  PTCLDY    72  63  73 CALM      30.14R
SUGAR LAND     CLEAR     73  61  65 SE9       30.12R
*HOUSTON EXEC  MOCLDY    70  61  73 SE8       30.13R
*CLEVELAND MUN CLEAR     62  60  93 CALM      30.14R
*WHARTON       CLOUDY    67  60  77 SE5       30.12R
*COLUMBUS      FAIR      64  54  68 CALM      30.11R
*EAGLE LAKE    CLEAR     71  62  73 SE9       30.11R
$$

TXZ214>216-236>238-190300-
THE UPPER TEXAS COAST

CITY           SKY/WX    TMP DP  RH WIND       PRES   REMARKS
*ORANGE        CLEAR     62  61  97 CALM      30.16R
PORT ARTHUR    CLEAR     63  60  90 CALM      30.13S
GALVESTON      MOCLDY    76  67  73 E7        30.13R
ANGLETON       PTCLDY    70  62  76 NE5       30.12S
*BAY CITY      CLOUDY    66  62  85 E5        30.11S
PALACIOS       CLOUDY    66  62  87 E7        30.10R
$$

TXZ229>234-239>247-190300-
TEXAS COASTAL BEND AND RIO GRANDE PLAINS

CITY           SKY/WX    TMP DP  RH WIND       PRES   REMARKS
VICTORIA       CLOUDY    66  60  81 SE5       30.10R
*BEEVILLE      CLOUDY    68  56  67 SE5       30.09R
ROCKPORT       CLOUDY    73  66  78 E7        30.09R
*PORT ARANSAS  NOT AVBL
*PORT LAVACA   CLOUDY    68  62  79 CALM      30.10R
*INGLESIDE     NOT AVBL
CORPUS CHRISTI CLOUDY    69  63  81 E7        30.08S
CORPUS NAS     MOCLDY    74  66  76 E7        30.07S
*ROBSTOWN      CLOUDY    69  60  72 E6        30.09R
ALICE          CLOUDY    68  57  68 E6        30.08R
KINGSVILLE NAS MOCLDY    68  62  81 E6        30.08R
COTULLA        PTCLDY    71  50  47 E7        30.06S
*FAITH RANCH   CLEAR     68  54  60 SE7       30.06S
LAREDO         PTCLDY    73  56  54 E6        30.07R
$$

TXZ248>255-190300-
DEEP SOUTH TEXAS

CITY           SKY/WX    TMP DP  RH WIND       PRES   REMARKS
BROWNSVILLE    CLEAR     73  66  78 E5        30.08R
PORT ISABEL    CLEAR     74  67  78 E6        30.07R
*SOUTH PADRE   NOT AVBL
HARLINGEN      CLEAR     69  65  86 E7        30.07R
*HEBBRONVILLE  CLEAR     70  55  58 SE6       30.10R
MCALLEN        CLEAR     76  63  64 E7        30.08R
*WESLACO       CLEAR     73  63  71 SE3       30.07R
FALFURRIAS     CLOUDY    69  59  71 CALM      30.08R
EDINBURG       CLEAR     73  63  71 E6        30.08R
*ZAPATA        CLEAR     71  55  58 E5        30.06R
$$

TXZ213>215-236>238-242>244-246-247-251-254-255-190300-
CMAN STATIONS

STATION/POSITION TIME  TEMP    WIND        PRES    WAVE
                       AIR SEA DIR/SP/G            HT/PER
                 (UTC) (F)     (DEG/KT/KT) (MB)    (FT/S)
SABINE PASS      0148   72 77  100/  3/  3 1022.0
SEA RIM ST PARK  0200   70      80/  6/  7 1021.0
NORTH JETTY/GLS  0148          100/  9/ 14   N/A
EAGLE POINT      0148   74 73  110/  9/ 10 1020.4
MORGANS POINT    0148   73 78  110/  5/  7 1020.2
PORT O`CONNOR    0148   75 76  110/ 13/ 15 1018.5
MALAQUITE BEACH  0148   77 80   90/ 11/ 13 1017.9
BAFFIN BAY       0148   76 76   90/  8/ 12 1018.5
PORT ISABEL      0148   77 78   70/  7/ 10 1018.1
$$




USA.gov is the U.S. government's official web portal to all federal, state and local government web resources and services.